| time (UTC) | temp F | wind direction | speed MPH | gust MPH | rain 1hr in | rain 24hr in | rain mn in | humidity % | barometer mb |
| 20260504173820 | 70 | 226 | 6.0 | 16.0 | 0.00 | 0.00 | 0.00 | 63 | 1008.4 |
| 20260504173316 | 70 | 224 | 9.0 | 18.0 | 0.00 | 0.00 | 0.00 | 60 | 1008.3 |
| 20260504172850 | 70 | 226 | 10.0 | 18.0 | 0.00 | 0.00 | 0.00 | 60 | 1008.2 |
| 20260504172321 | 70 | 211 | 8.0 | 14.0 | 0.00 | 0.00 | 0.00 | 61 | 1008.1 |
| 20260504171814 | 70 | 211 | 7.0 | 13.0 | 0.00 | 0.00 | 0.00 | 63 | 1008.2 |
| 20260504171327 | 69 | 208 | 6.0 | 17.0 | 0.00 | 0.00 | 0.00 | 64 | 1008.3 |
| 20260504170840 | 69 | 207 | 8.0 | 10.0 | 0.00 | 0.00 | 0.00 | 64 | 1008.3 |
| 20260504170311 | 68 | 205 | 6.0 | 12.0 | 0.00 | 0.00 | 0.00 | 65 | 1008.4 |
| 20260504160326 | 66 | 251 | 5.0 | 9.0 | 0.00 | 0.00 | 0.00 | 67 | 1009.1 |
| 20260504150834 | 65 | 250 | 4.0 | 11.0 | 0.00 | 0.00 | 0.00 | 68 | 1009.2 |
| 20260504150325 | 64 | 212 | 4.0 | 12.0 | 0.00 | 0.00 | 0.00 | 67 | 1009.2 |
| 20260504141316 | 61 | 249 | 5.0 | 11.0 | 0.00 | 0.00 | 0.00 | 72 | 1009.2 |
| 20260504140850 | 61 | 208 | 6.0 | 11.0 | 0.00 | 0.00 | 0.00 | 72 | 1009.3 |
| 20260504140342 | 60 | 232 | 5.0 | 13.0 | 0.00 | 0.00 | 0.00 | 71 | 1009.3 |
| 20260504130320 | 55 | 176 | 4.0 | 10.0 | 0.00 | 0.00 | 0.00 | 78 | 1009.5 |
| 20260504120318 | 52 | 205 | 4.0 | 8.0 | 0.00 | 0.00 | 0.00 | 78 | 1009.7 |
| 20260504110333 | 51 | 209 | 3.0 | 7.0 | 0.00 | 0.00 | 0.00 | 75 | 1009.7 |
| 20260504100312 | 50 | 213 | 4.0 | 6.0 | 0.00 | 0.00 | 0.00 | 75 | 1009.8 |
| 20260504081825 | 50 | 229 | 3.0 | 5.0 | 0.00 | 0.00 | 0.00 | 73 | 1010.4 |
| 20260504081338 | 50 | 221 | 2.0 | 4.0 | 0.00 | 0.00 | 0.00 | 73 | 1010.4 |
| 20260504080827 | 50 | 208 | 2.0 | 5.0 | 0.00 | 0.00 | 0.00 | 73 | 1010.5 |
| 20260504080320 | 50 | 226 | 2.0 | 7.0 | 0.00 | 0.00 | 0.00 | 73 | 1010.6 |
| 20260504070347 | 51 | 200 | 2.0 | 7.0 | 0.00 | 0.00 | 0.00 | 71 | 1011.0 |
| 20260504050321 | 48 | 249 | 0.0 | 2.0 | 0.00 | 0.00 | 0.00 | 77 | 1012.3 |
| 20260504045814 | 47 | 201 | 0.0 | 2.0 | 0.00 | 0.00 | 0.00 | 77 | 1012.3 |
| 20260504045326 | 48 | 211 | 0.0 | 1.0 | 0.00 | 0.00 | 0.00 | 77 | 1012.3 |
| 20260504044819 | 47 | 211 | 0.0 | 1.0 | 0.00 | 0.00 | 0.00 | 78 | 1012.3 |
| 20260504044312 | 47 | 211 | 0.0 | 1.0 | 0.00 | 0.00 | 0.00 | 78 | 1012.3 |
| 20260504043825 | 47 | 144 | 0.0 | 0.0 | 0.00 | 0.00 | 0.00 | 79 | 1012.3 |
| 20260504043318 | 46 | 210 | 0.0 | 1.0 | 0.00 | 0.00 | 0.00 | 78 | 1012.4 |
| 20260504042810 | 46 | 210 | 0.0 | 0.0 | 0.00 | 0.00 | 0.00 | 78 | 1012.4 |
| 20260504042327 | 47 | 210 | 0.0 | 0.0 | 0.00 | 0.00 | 0.00 | 77 | 1012.5 |
| 20260504041820 | 47 | 210 | 0.0 | 0.0 | 0.00 | 0.00 | 0.00 | 76 | 1012.5 |
| 20260504041313 | 48 | 210 | 0.0 | 0.0 | 0.00 | 0.00 | 0.00 | 75 | 1012.6 |
| 20260504040825 | 48 | 210 | 0.0 | 0.0 | 0.00 | 0.00 | 0.00 | 74 | 1012.7 |
| 20260504040318 | 48 | 210 | 0.0 | 0.0 | 0.00 | 0.00 | 0.00 | 74 | 1012.7 |
| 20260504035811 | 49 | 199 | 0.0 | 1.0 | 0.00 | 0.00 | 0.00 | 73 | 1012.7 |
| 20260504035324 | 49 | 199 | 0.0 | 1.0 | 0.00 | 0.00 | 0.00 | 71 | 1012.7 |
| 20260504034816 | 50 | 224 | 0.0 | 2.0 | 0.00 | 0.00 | 0.00 | 71 | 1012.8 |
| 20260504034314 | 50 | 179 | 0.0 | 3.0 | 0.00 | 0.00 | 0.00 | 70 | 1012.8 |
| 20260504033826 | 50 | 157 | 0.0 | 3.0 | 0.00 | 0.00 | 0.00 | 70 | 1012.8 |
| 20260504033319 | 50 | 213 | 0.0 | 2.0 | 0.00 | 0.00 | 0.00 | 70 | 1012.9 |
| 20260504032812 | 50 | 211 | 0.0 | 1.0 | 0.00 | 0.00 | 0.00 | 69 | 1012.9 |
| 20260504032325 | 51 | 146 | 0.0 | 1.0 | 0.00 | 0.00 | 0.00 | 69 | 1013.0 |
| 20260504031817 | 51 | 212 | 0.0 | 1.0 | 0.00 | 0.00 | 0.00 | 68 | 1013.0 |
| 20260504031311 | 51 | 207 | 0.0 | 2.0 | 0.00 | 0.00 | 0.00 | 67 | 1013.0 |
| 20260504030823 | 52 | 228 | 0.0 | 2.0 | 0.00 | 0.00 | 0.00 | 67 | 1013.0 |
| 20260504030320 | 52 | 211 | 0.0 | 3.0 | 0.00 | 0.00 | 0.00 | 66 | 1013.1 |
| 20260504025813 | 52 | 217 | 1.0 | 3.0 | 0.00 | 0.00 | 0.00 | 66 | 1013.1 |
| 20260504025346 | 52 | 179 | 0.0 | 2.0 | 0.00 | 0.00 | 0.00 | 65 | 1013.2 |
| 20260504024818 | 52 | 192 | 0.0 | 2.0 | 0.00 | 0.00 | 0.00 | 65 | 1013.2 |
| 20260504024351 | 53 | 156 | 0.0 | 1.0 | 0.00 | 0.00 | 0.00 | 65 | 1013.2 |
| 20260504023823 | 53 | 224 | 0.0 | 1.0 | 0.00 | 0.00 | 0.00 | 64 | 1013.2 |
| 20260504023315 | 53 | 222 | 0.0 | 4.0 | 0.00 | 0.00 | 0.00 | 64 | 1013.2 |
| 20260504022828 | 53 | 214 | 1.0 | 4.0 | 0.00 | 0.00 | 0.00 | 64 | 1013.2 |
| 20260504022321 | 53 | 205 | 0.0 | 3.0 | 0.00 | 0.00 | 0.00 | 64 | 1013.2 |
| 20260504021818 | 54 | 218 | 1.0 | 3.0 | 0.00 | 0.00 | 0.00 | 63 | 1013.2 |
| 20260504021311 | 54 | 203 | 1.0 | 3.0 | 0.00 | 0.00 | 0.00 | 62 | 1013.2 |
| 20260504020824 | 54 | 252 | 1.0 | 3.0 | 0.00 | 0.00 | 0.00 | 62 | 1013.2 |
| 20260504020337 | 54 | 156 | 0.0 | 2.0 | 0.00 | 0.00 | 0.00 | 62 | 1013.1 |
| 20260504015829 | 54 | 205 | 0.0 | 2.0 | 0.00 | 0.00 | 0.00 | 62 | 1013.1 |
| 20260504015321 | 55 | 184 | 1.0 | 3.0 | 0.00 | 0.00 | 0.00 | 61 | 1013.1 |
| 20260504014814 | 55 | 148 | 1.0 | 4.0 | 0.00 | 0.00 | 0.00 | 61 | 1013.0 |
| 20260504014327 | 55 | 198 | 1.0 | 4.0 | 0.00 | 0.00 | 0.00 | 61 | 1013.0 |
| 20260504013821 | 55 | 154 | 2.0 | 5.0 | 0.00 | 0.00 | 0.00 | 59 | 1013.0 |
| 20260504013313 | 56 | 209 | 2.0 | 6.0 | 0.00 | 0.00 | 0.00 | 59 | 1013.0 |
| 20260504012826 | 56 | 221 | 3.0 | 6.0 | 0.00 | 0.00 | 0.00 | 58 | 1013.0 |
| 20260504012339 | 56 | 216 | 3.0 | 7.0 | 0.00 | 0.00 | 0.00 | 57 | 1013.0 |
| 20260504011811 | 56 | 169 | 4.0 | 7.0 | 0.00 | 0.00 | 0.00 | 56 | 1013.0 |
| 20260504011324 | 56 | 213 | 3.0 | 10.0 | 0.00 | 0.00 | 0.00 | 55 | 1012.9 |
| 20260504010817 | 56 | 187 | 6.0 | 10.0 | 0.00 | 0.00 | 0.00 | 54 | 1012.9 |
| 20260504010330 | 56 | 212 | 4.0 | 8.0 | 0.00 | 0.00 | 0.00 | 53 | 1012.8 |
| 20260504005843 | 56 | 198 | 4.0 | 9.0 | 0.00 | 0.00 | 0.00 | 54 | 1012.7 |
| 20260504005318 | 56 | 212 | 4.0 | 9.0 | 0.00 | 0.00 | 0.00 | 53 | 1012.8 |
| 20260504004811 | 56 | 218 | 5.0 | 9.0 | 0.00 | 0.00 | 0.00 | 52 | 1012.9 |
| 20260504004324 | 57 | 148 | 3.0 | 7.0 | 0.00 | 0.00 | 0.00 | 53 | 1012.9 |
| 20260504003817 | 57 | 226 | 3.0 | 7.0 | 0.00 | 0.00 | 0.00 | 53 | 1012.9 |
| 20260504003330 | 57 | 192 | 4.0 | 7.0 | 0.00 | 0.00 | 0.00 | 51 | 1012.6 |
| 20260504002823 | 57 | 207 | 3.0 | 6.0 | 0.00 | 0.00 | 0.00 | 51 | 1012.6 |
| 20260504002315 | 57 | 172 | 3.0 | 9.0 | 0.00 | 0.00 | 0.00 | 50 | 1012.6 |
| 20260504001828 | 58 | 186 | 5.0 | 8.0 | 0.00 | 0.00 | 0.00 | 50 | 1012.7 |
| 20260504001325 | 58 | 210 | 4.0 | 11.0 | 0.00 | 0.00 | 0.00 | 49 | 1012.8 |
| 20260504000818 | 58 | 233 | 4.0 | 11.0 | 0.00 | 0.00 | 0.00 | 49 | 1012.9 |
| 20260504000311 | 58 | 215 | 4.0 | 7.0 | 0.00 | 0.00 | 0.00 | 49 | 1012.9 |
| 20260503235844 | 58 | 214 | 3.0 | 8.0 | 0.00 | 0.00 | 0.00 | 50 | 1013.0 |
| 20260503235316 | 58 | 214 | 2.0 | 6.0 | 0.00 | 0.00 | 0.00 | 50 | 1012.9 |
| 20260503234826 | 58 | 211 | 3.0 | 6.0 | 0.00 | 0.00 | 0.00 | 49 | 1012.9 |
| 20260503234338 | 58 | 199 | 3.0 | 7.0 | 0.00 | 0.00 | 0.00 | 48 | 1012.8 |
| 20260503233810 | 59 | 226 | 3.0 | 7.0 | 0.00 | 0.00 | 0.00 | 48 | 1012.7 |
| 20260503233323 | 59 | 216 | 3.0 | 7.0 | 0.00 | 0.00 | 0.00 | 47 | 1012.8 |
| 20260503232819 | 59 | 231 | 4.0 | 7.0 | 0.00 | 0.00 | 0.00 | 47 | 1012.8 |
| 20260503232312 | 59 | 212 | 4.0 | 8.0 | 0.00 | 0.00 | 0.00 | 46 | 1012.8 |
| 20260503231825 | 60 | 229 | 5.0 | 12.0 | 0.00 | 0.00 | 0.00 | 45 | 1012.9 |
| 20260503231318 | 60 | 199 | 6.0 | 12.0 | 0.00 | 0.00 | 0.00 | 44 | 1012.9 |
| 20260503230827 | 60 | 212 | 5.0 | 10.0 | 0.00 | 0.00 | 0.00 | 45 | 1013.0 |
| 20260503230320 | 60 | 153 | 5.0 | 10.0 | 0.00 | 0.00 | 0.00 | 45 | 1013.1 |
| 20260503225833 | 60 | 203 | 5.0 | 12.0 | 0.00 | 0.00 | 0.00 | 46 | 1013.2 |
| 20260503225325 | 60 | 216 | 5.0 | 12.0 | 0.00 | 0.00 | 0.00 | 47 | 1013.3 |
| 20260503224816 | 60 | 224 | 6.0 | 10.0 | 0.00 | 0.00 | 0.00 | 45 | 1013.4 |
| 20260503224312 | 60 | 168 | 4.0 | 11.0 | 0.00 | 0.00 | 0.00 | 45 | 1013.5 |
| 20260503223825 | 60 | 220 | 5.0 | 12.0 | 0.00 | 0.00 | 0.00 | 46 | 1013.7 |
| 20260503223318 | 60 | 245 | 8.0 | 12.0 | 0.00 | 0.00 | 0.00 | 43 | 1013.7 |
| 20260503222811 | 60 | 220 | 4.0 | 8.0 | 0.00 | 0.00 | 0.00 | 43 | 1013.8 |
| 20260503222344 | 60 | 227 | 4.0 | 11.0 | 0.00 | 0.00 | 0.00 | 44 | 1013.9 |
| 20260503221816 | 60 | 209 | 7.0 | 12.0 | 0.00 | 0.00 | 0.00 | 44 | 1014.0 |
| 20260503221329 | 60 | 237 | 7.0 | 13.0 | 0.00 | 0.00 | 0.00 | 43 | 1014.0 |
| 20260503220821 | 60 | 212 | 8.0 | 13.0 | 0.00 | 0.00 | 0.00 | 43 | 1014.1 |
| 20260503220318 | 61 | 211 | 6.0 | 11.0 | 0.00 | 0.00 | 0.00 | 43 | 1014.1 |
| 20260503215812 | 61 | 206 | 5.0 | 11.0 | 0.00 | 0.00 | 0.00 | 43 | 1014.2 |
| 20260503215324 | 62 | 243 | 5.0 | 15.0 | 0.00 | 0.00 | 0.00 | 44 | 1014.2 |
| 20260503214817 | 62 | 228 | 10.0 | 15.0 | 0.00 | 0.00 | 0.00 | 41 | 1014.3 |
| 20260503214330 | 62 | 217 | 5.0 | 14.0 | 0.00 | 0.00 | 0.00 | 44 | 1014.3 |
| 20260503213823 | 62 | 188 | 7.0 | 14.0 | 0.00 | 0.00 | 0.00 | 42 | 1014.4 |
| 20260503213316 | 62 | 203 | 5.0 | 15.0 | 0.00 | 0.00 | 0.00 | 42 | 1014.5 |
| 20260503212828 | 61 | 233 | 6.0 | 15.0 | 0.00 | 0.00 | 0.00 | 44 | 1014.5 |
| 20260503212325 | 61 | 261 | 8.0 | 14.0 | 0.00 | 0.00 | 0.00 | 45 | 1014.5 |
| 20260503211838 | 61 | 154 | 7.0 | 13.0 | 0.00 | 0.00 | 0.00 | 42 | 1014.5 |
| 20260503211330 | 60 | 245 | 8.0 | 11.0 | 0.00 | 0.00 | 0.00 | 43 | 1014.5 |
| 20260503210822 | 59 | 224 | 4.0 | 10.0 | 0.00 | 0.00 | 0.00 | 47 | 1014.6 |
| 20260503210314 | 59 | 210 | 4.0 | 11.0 | 0.00 | 0.00 | 0.00 | 45 | 1014.6 |
| 20260503205827 | 59 | 214 | 5.0 | 11.0 | 0.00 | 0.00 | 0.00 | 43 | 1014.8 |
| 20260503205319 | 60 | 254 | 4.0 | 8.0 | 0.00 | 0.00 | 0.00 | 44 | 1015.0 |
| 20260503204812 | 59 | 240 | 3.0 | 9.0 | 0.00 | 0.00 | 0.00 | 46 | 1015.1 |
| 20260503204345 | 59 | 221 | 3.0 | 11.0 | 0.00 | 0.00 | 0.00 | 44 | 1015.3 |
| 20260503203818 | 59 | 264 | 7.0 | 11.0 | 0.00 | 0.00 | 0.00 | 43 | 1015.6 |
| 20260503203351 | 59 | 215 | 4.0 | 7.0 | 0.00 | 0.00 | 0.00 | 47 | 1015.8 |
| 20260503202823 | 59 | 231 | 4.0 | 10.0 | 0.00 | 0.00 | 0.00 | 46 | 1015.8 |
| 20260503202315 | 59 | 240 | 4.0 | 12.0 | 0.00 | 0.00 | 0.00 | 47 | 1015.7 |
| 20260503201849 | 59 | 219 | 4.0 | 12.0 | 0.00 | 0.00 | 0.00 | 43 | 1015.7 |
| 20260503201341 | 59 | 224 | 6.0 | 12.0 | 0.00 | 0.00 | 0.00 | 46 | 1015.6 |
| 20260503200812 | 59 | 232 | 8.0 | 13.0 | 0.00 | 0.00 | 0.00 | 45 | 1015.5 |
| 20260503200345 | 59 | 209 | 8.0 | 14.0 | 0.00 | 0.00 | 0.00 | 43 | 1015.6 |
| 20260503195817 | 59 | 205 | 9.0 | 14.0 | 0.00 | 0.00 | 0.00 | 43 | 1015.7 |
| 20260503195330 | 60 | 276 | 9.0 | 14.0 | 0.00 | 0.00 | 0.00 | 44 | 1015.8 |
| 20260503194822 | 59 | 222 | 6.0 | 14.0 | 0.00 | 0.00 | 0.00 | 45 | 1015.8 |
| 20260503194319 | 59 | 224 | 6.0 | 10.0 | 0.00 | 0.00 | 0.00 | 44 | 1015.8 |
| 20260503193812 | 59 | 232 | 4.0 | 10.0 | 0.00 | 0.00 | 0.00 | 45 | 1015.9 |
| 20260503193325 | 59 | 174 | 6.0 | 15.0 | 0.00 | 0.00 | 0.00 | 44 | 1016.0 |
| 20260503192838 | 59 | 257 | 7.0 | 15.0 | 0.00 | 0.00 | 0.00 | 44 | 1016.2 |
| 20260503192330 | 59 | 257 | 6.0 | 18.0 | 0.00 | 0.00 | 0.00 | 44 | 1016.4 |
| 20260503191841 | 60 | 215 | 8.0 | 17.0 | 0.00 | 0.00 | 0.00 | 42 | 1016.5 |
| 20260503191332 | 60 | 181 | 5.0 | 13.0 | 0.00 | 0.00 | 0.00 | 45 | 1016.6 |
| 20260503190825 | 60 | 206 | 6.0 | 13.0 | 0.00 | 0.00 | 0.00 | 44 | 1016.6 |
| 20260503190317 | 61 | 233 | 6.0 | 15.0 | 0.00 | 0.00 | 0.00 | 42 | 1016.7 |
| 20260503185814 | 61 | 232 | 9.0 | 15.0 | 0.00 | 0.00 | 0.00 | 42 | 1016.8 |
| 20260503185327 | 61 | 251 | 5.0 | 14.0 | 0.00 | 0.00 | 0.00 | 43 | 1016.8 |
| 20260503184820 | 61 | 206 | 7.0 | 16.0 | 0.00 | 0.00 | 0.00 | 43 | 1016.9 |
| 20260503184312 | 60 | 265 | 10.0 | 16.0 | 0.00 | 0.00 | 0.00 | 43 | 1016.8 |
| 20260503183826 | 60 | 254 | 7.0 | 14.0 | 0.00 | 0.00 | 0.00 | 43 | 1017.0 |
| 20260503183318 | 60 | 245 | 9.0 | 16.0 | 0.00 | 0.00 | 0.00 | 42 | 1017.0 |
| 20260503182831 | 59 | 256 | 10.0 | 16.0 | 0.00 | 0.00 | 0.00 | 43 | 1017.1 |
| 20260503182323 | 59 | 200 | 8.0 | 14.0 | 0.00 | 0.00 | 0.00 | 41 | 1017.2 |
| 20260503181836 | 59 | 260 | 9.0 | 17.0 | 0.00 | 0.00 | 0.00 | 42 | 1017.3 |
| 20260503181311 | 59 | 259 | 10.0 | 17.0 | 0.00 | 0.00 | 0.00 | 43 | 1017.3 |
| 20260503180825 | 59 | 240 | 8.0 | 14.0 | 0.00 | 0.00 | 0.00 | 41 | 1017.3 |
| 20260503180318 | 59 | 255 | 9.0 | 15.0 | 0.00 | 0.00 | 0.00 | 42 | 1017.4 |
| 20260503175811 | 59 | 244 | 8.0 | 15.0 | 0.00 | 0.00 | 0.00 | 43 | 1017.4 |
| 20260503175323 | 59 | 247 | 7.0 | 18.0 | 0.00 | 0.00 | 0.00 | 43 | 1017.4 |
| 20260503174836 | 59 | 176 | 8.0 | 18.0 | 0.00 | 0.00 | 0.00 | 43 | 1017.4 |
| 20260503174328 | 59 | 211 | 8.0 | 15.0 | 0.00 | 0.00 | 0.00 | 41 | 1017.6 |